{"data":{"norad_id":37753,"epoch":"2026-09-19T14:57:43.054272Z","epoch_age_seconds":104875,"freshness":"FRESH","line1":"1 37753U 11036A   26262.62341498 -.00000081  00000+0  00000+0 0  9999","line2":"2 37753  56.5136 328.3424 0140612  63.0508 315.4967  2.00561236111176","mean_motion":2.00561236,"eccentricity":0.0140612,"inclination_deg":56.5136,"raan_deg":328.3424,"arg_perigee_deg":63.0508,"mean_anomaly_deg":315.4967,"bstar":0,"rev_number":11117,"period_min":717.98520427946,"perigee_km":19808.946577743,"apogee_km":20555.893182549,"semimajor_km":26560.556880146,"source":"CELESTRAK","updated_at":"2026-09-20T09:00:13.805478Z"}}